[Date Prev][Date Next][Thread Prev][Thread Next] - [Date Index][Thread Index][Author Index]
2 Line ISS Keps 4-5
- Subject: [sarex] 2 Line ISS Keps 4-5
- From: "Dave Larsen PhD" <doc@xxxxxxxxxxx>
- Date: Fri, 5 Apr 2002 03:50:49 -0800
ISS
1 25544U 98067A 02095.16912037 .00051755 00000-0 63659-3 0 2656
2 25544 51.6383 59.8364 0003399 359.0834 187.9280 15.59725876192641
----
Via the sarex mailing list at AMSAT.ORG courtesy of AMSAT-NA.
To unsubscribe, send "unsubscribe sarex" to Majordomo@amsat.org
AMSAT Home